DW7281 Weather Reports


Display with metric or nautical units.
time (UTC)temp
F
wind
direction
speed
MPH
gust
MPH
rain 1hr
in
rain 24hr
in
rain mn
in
humidity
%
barometer
mb
20260831230054 60 23 2.0 12.0 0.00 0.00 0.00 78 1033.0
20260831224558 59 0 2.0 11.0 0.00 0.00 0.00 80 1032.8
20260831223058 58 42 3.0 11.0 0.00 0.00 0.00 82 1032.8
20260831221603 56 24 3.0 10.0 0.00 0.00 0.00 83 1032.7
20260831220114 56 28 4.0 11.0 0.00 0.00 0.00 83 1032.6
20260831214608 56 0 3.0 10.0 0.00 0.00 0.00 84 1032.4
20260831213054 55 32 4.0 12.0 0.00 0.00 0.00 85 1032.1
20260831211550 54 69 3.0 10.0 0.00 0.00 0.00 87 1032.0
20260831210100 52 32 3.0 9.0 0.00 0.00 0.00 88 1031.7
20260831204557 51 20 3.0 9.0 0.00 0.00 0.00 89 1031.6
20260831203059 50 23 2.0 7.0 0.00 0.00 0.00 89 1031.4
20260831201557 50 0 3.0 7.0 0.00 0.00 0.00 90 1031.1
20260831200111 50 42 1.0 7.0 0.00 0.00 0.00 90 1031.0
20260831194610 50 24 1.0 9.0 0.00 0.00 0.00 90 1030.8
20260831193050 50 0 0.0 4.0 0.00 0.00 0.00 90 1030.7
20260831191555 50 0 0.0 3.0 0.00 0.00 0.00 90 1030.7
20260831190106 50 0 0.0 4.0 0.00 0.00 0.00 90 1030.6
20260831184600 50 0 1.0 6.0 0.00 0.00 0.00 90 1030.5
20260831183059 50 0 1.0 5.0 0.00 0.00 0.00 91 1030.2
20260831181559 50 38 2.0 7.0 0.00 0.00 0.00 91 1030.2
20260831180101 50 0 1.0 6.0 0.00 0.00 0.00 91 1030.3
20260831174559 50 0 0.0 2.0 0.00 0.00 0.00 90 1030.3
20260831173101 51 15 0.0 7.0 0.00 0.00 0.00 90 1030.4
20260831171556 51 0 0.0 6.0 0.00 0.00 0.00 90 1030.4
20260831170055 51 19 2.0 5.0 0.00 0.00 0.00 90 1030.5
20260831164551 51 0 3.0 8.0 0.00 0.00 0.00 90 1030.7
20260831163102 52 44 1.0 9.0 0.00 0.00 0.00 90 1030.9
20260831161556 52 49 1.0 8.0 0.00 0.00 0.00 89 1031.0
20260831154619 52 32 3.0 8.0 0.00 0.00 0.00 89 1031.5
20260831153059 53 42 2.0 12.0 0.00 0.00 0.00 89 1031.7
20260831151550 53 27 2.0 10.0 0.00 0.00 0.00 89 1031.8
20260831150110 53 38 4.0 9.0 0.00 0.00 0.00 89 1031.7
20260831144603 53 0 4.0 11.0 0.00 0.00 0.00 89 1031.9
20260831143059 53 40 4.0 10.0 0.00 0.00 0.00 89 1032.1
20260831141604 53 32 3.0 11.0 0.00 0.00 0.00 89 1032.2
20260831140058 54 13 3.0 11.0 0.00 0.00 0.00 88 1032.5
20260831134555 54 360 3.0 9.0 0.00 0.00 0.00 88 1032.6
20260831133050 54 37 4.0 11.0 0.00 0.00 0.00 88 1032.8
20260831131604 54 21 4.0 11.0 0.00 0.00 0.00 88 1032.8
20260831130100 55 35 1.0 9.0 0.00 0.00 0.00 87 1033.1
20260831124557 55 0 1.0 11.0 0.00 0.00 0.00 87 1033.2
20260831123057 55 0 2.0 12.0 0.00 0.00 0.00 87 1033.3
20260831121553 55 26 2.0 9.0 0.00 0.00 0.00 87 1033.1
20260831120112 55 36 4.0 12.0 0.00 0.00 0.00 86 1033.1
20260831114558 55 46 3.0 11.0 0.00 0.00 0.00 86 1033.1
20260831113102 55 10 4.0 13.0 0.00 0.00 0.00 86 1033.0
20260831111611 55 13 4.0 12.0 0.00 0.00 0.00 85 1033.0
20260831110101 55 11 5.0 13.0 0.00 0.00 0.00 85 1032.8
20260831104604 55 0 4.0 13.0 0.00 0.00 0.00 84 1032.7
20260831103104 55 25 4.0 14.0 0.00 0.00 0.00 83 1032.7
20260831101557 55 13 4.0 16.0 0.00 0.00 0.00 83 1032.4
20260831100051 56 24 2.0 11.0 0.00 0.00 0.00 82 1032.4
20260831094604 56 25 3.0 11.0 0.00 0.00 0.00 82 1032.3
20260831093058 56 36 3.0 12.0 0.00 0.00 0.00 82 1032.3
20260831091559 57 18 4.0 11.0 0.00 0.00 0.00 81 1031.9
20260831090049 57 11 4.0 13.0 0.00 0.00 0.00 80 1031.7
20260831084608 58 18 2.0 13.0 0.00 0.00 0.00 79 1031.3
20260831083057 59 26 3.0 12.0 0.00 0.00 0.00 77 1031.2
20260831081604 60 39 4.0 16.0 0.00 0.00 0.00 73 1031.2
20260831080135 61 32 2.0 9.0 0.00 0.00 0.00 65 1031.0
20260831074606 62 32 2.0 10.0 0.00 0.00 0.00 61 1030.9
20260831073113 63 24 3.0 9.0 0.00 0.00 0.00 58 1030.9
20260831071559 64 38 1.0 9.0 0.00 0.00 0.00 55 1030.8
20260831070058 65 0 0.0 7.0 0.00 0.00 0.00 54 1030.6
20260831064556 65 0 0.0 6.0 0.00 0.00 0.00 52 1030.6
20260831063106 66 67 3.0 10.0 0.00 0.00 0.00 49 1030.5
20260831061557 67 23 2.0 11.0 0.00 0.00 0.00 50 1030.3
20260831060101 66 54 0.0 8.0 0.00 0.00 0.00 52 1030.2
20260831054553 67 0 1.0 10.0 0.00 0.00 0.00 49 1030.1
20260831053058 67 0 1.0 11.0 0.00 0.00 0.00 51 1030.0
20260831051556 67 21 1.0 11.0 0.00 0.00 0.00 50 1030.3
20260831050103 67 360 3.0 12.0 0.00 0.00 0.00 51 1030.3
20260831044602 68 36 3.0 12.0 0.00 0.00 0.00 49 1030.4
20260831043057 67 19 0.0 6.0 0.00 0.00 0.00 50 1030.5
20260831041606 68 37 4.0 12.0 0.00 0.00 0.00 49 1030.7
20260831040107 69 20 2.0 9.0 0.00 0.00 0.00 46 1031.0
20260831034604 68 16 2.0 12.0 0.00 0.00 0.00 50 1031.0
20260831033055 68 0 3.0 13.0 0.00 0.00 0.00 50 1031.2
20260831031549 68 34 4.0 13.0 0.00 0.00 0.00 52 1031.3
20260831024559 66 32 2.0 14.0 0.00 0.00 0.00 54 1031.4
20260831023050 66 40 3.0 14.0 0.00 0.00 0.00 55 1031.5
20260831021550 66 0 3.0 13.0 0.00 0.00 0.00 56 1031.6
20260831014551 66 40 2.0 10.0 0.00 0.00 0.00 56 1031.9
20260831013106 65 15 4.0 13.0 0.00 0.00 0.00 59 1032.1
20260831011601 64 49 4.0 12.0 0.00 0.00 0.00 59 1032.1
20260831010112 64 67 4.0 13.0 0.00 0.00 0.00 60 1032.2
20260831004558 63 34 4.0 17.0 0.00 0.00 0.00 59 1032.4
20260831003104 63 32 3.0 14.0 0.00 0.00 0.00 60 1032.6
20260831001555 63 11 4.0 14.0 0.00 0.00 0.00 61 1032.8
20260831000053 62 38 4.0 13.0 0.00 0.00 0.00 62 1032.9
20260830234550 61 30 8.0 13.0 0.00 0.00 0.00 63 1033.0
20260830233057 60 84 4.0 13.0 0.00 0.00 0.00 66 1033.0
20260830231550 60 38 3.0 14.0 0.00 0.00 0.00 67 1032.7